Showing default

COURIER 1B, 58

Orbit data source: Space-Track

COURIER 1B, 58 is a payload satellite owned by SCEL (US) in LEO that was launched on Tue, 04 Oct 1960 UTC via a THOR ABLESTAR launch vehicle from the Air Force Eastern Test Range (AFETR). Payload-class satellites include a variety of spacecraft equipped with specific instruments for various scientific and technological missions. These include communications satellites like Starlink; space stations such as the ISS; scientific satellites like the Hubble; Earth observation satellites from companies like Planet Labs, Umbra, and HawkEye 360; GPS; miniature CubeSats for education and research; and military/defense satellites.

Loading next visibility...
Identifier
58, 1960-013A
Orbit
LEO
Country
Flag of USUS
Related business
Manufacturer
SCEL/PHLP
Mission
Spacecraft
Bus & Motor
COURIER, Unknown motor
Mass
225 kg wet, 225 kg dry
Launch date (UTC)
1960-10-04 (66 years ago)
Launch vehicle
THOR ABLESTAR
Launch site
Air Force Eastern Test Range (AFETR)
Object type
Payload
Rocket body
Debris
Shape & HBR
Unknown
Radar Cross Section
Large (>1 m²)

Expand to show TLE details & history
Last TLE update: 3 hours ago

TLE from 3 hours ago
0 COURIER 1B
1    58U 60013A   26127.85226639  .00000111  00000-0  33866-4 0  9995
2    58  28.3303 344.3978 0164922 233.8121 124.7068 13.46429111228626
Epoch: 2026-05-07T20:27Z
TLE epoch observation values (Epoch: 2026-05-07T20:27:15.816Z)
Latitude
-0.00002°
Longitude
171.8894°
Altitude
1,155.227 km
Speed
7.243 km/s
True Right ascension
22h 57m 35s
True Declination
0° 00' 00"
Sunlit
Object was in daylight at epoch
Visualization orbit readout
Latitude
Unknown
Longitude
Unknown
Altitude
Unknown
Speed
Unknown
Apparent Right ascension
Unknown
Apparent Declination
Unknown
Sunlit
N/A
Visualization observer readout
Local Sidereal Time
07:52:12
Azimuth
Unknown
Elevation
Unknown
Doppler factor
Unknown
Orbital elements
Apogee altitude
1,212.496 km
Perigee altitude
966.186 km
Semi-major axis
7,467.478 km
Eccentricity
0.01649
Inclination
28.3303°
RAAN
344.3978°
Arg. of periapsis
233.8121°
True anomaly
126.2422°
Mean anomaly
124.7068°
Eccentric anomaly
125.47631°
Mean motion
3.36343 °/min
Orbital period
107.03 mins
BSTAR
0.000033866
Loading maneuver chart data...
Computing Atmospheric mass density...
Loading historical data...
Loading historical data...
Loading historical data...
Loading historical data...
Loading historical data...
Loading historical data...
Loading historical data...
Other satellites on launch #13 in the year 1960 (1960-10-04 UTC)

Documentation

Showing up to 5 results
|